AEE075 LOWW-LGAV

Flight info

Callsign AEE075
Flight time N/A
Altitude 39000
Route ARSIN2A/11 ARSIN DCT NALOX DCT BABIT DCT NEVAK DCT RAXAD DCT MAKED UL617 SKP UM749 ROPOX
Aircraft A20N/M-SDE2E3FGHIRWXY/LB1

Departure

Time 2026-05-04 19:36
Airport Vienna International Airport (LOWW)

Arrival

Time N/A
Airport Athens Eleftherios Venizelos International Airport (LGAV)
Time Latitude Longitude Altitude Speed Heading
2026-05-04 19:10 48.11633 16.56508 599 ft 0 kts 205°
2026-05-04 19:30 48.11628 16.56504 599 ft 5 kts 205°
2026-05-04 19:30 48.11568 16.56439 598 ft 13 kts 251°
2026-05-04 19:31 48.11531 16.56316 600 ft 13 kts 274°
2026-05-04 19:31 48.11565 16.56178 601 ft 20 kts 295°
2026-05-04 19:31 48.11650 16.55906 603 ft 31 kts 296°
2026-05-04 19:31 48.11760 16.55602 598 ft 35 kts 297°
2026-05-04 19:32 48.11867 16.55258 594 ft 37 kts 296°
2026-05-04 19:32 48.11981 16.54904 593 ft 38 kts 296°
2026-05-04 19:32 48.12101 16.54539 589 ft 40 kts 297°
2026-05-04 19:32 48.12227 16.54154 583 ft 42 kts 296°
2026-05-04 19:33 48.12349 16.53780 581 ft 21 kts 295°
2026-05-04 19:33 48.12378 16.53609 583 ft 21 kts 248°
2026-05-04 19:33 48.12356 16.53573 584 ft 0 kts 211°
2026-05-04 19:34 48.12327 16.53548 585 ft 18 kts 211°
2026-05-04 19:34 48.12196 16.53570 583 ft 27 kts 119°
2026-05-04 19:35 48.11987 16.54231 585 ft 110 kts 116°
2026-05-04 19:35 48.11549 16.55556 625 ft 170 kts 118°
2026-05-04 19:35 48.10946 16.57278 798 ft 197 kts 120°
2026-05-04 19:35 48.10216 16.59265 952 ft 238 kts 118°
2026-05-04 19:36 48.09492 16.61535 1977 ft 234 kts 119°
2026-05-04 19:36 48.08850 16.63664 3299 ft 221 kts 120°
2026-05-04 19:36 48.08192 16.65767 4102 ft 225 kts 121°
2026-05-04 19:36 48.07450 16.67834 4561 ft 223 kts 131°
2026-05-04 19:37 48.06376 16.69469 4844 ft 219 kts 149°
2026-05-04 19:37 48.05028 16.70501 5166 ft 221 kts 166°
2026-05-04 19:37 48.03505 16.70855 5968 ft 221 kts 182°
2026-05-04 19:37 48.01981 16.70577 6907 ft 224 kts 191°
2026-05-04 19:38 48.00376 16.70158 7483 ft 245 kts 190°
2026-05-04 19:38 47.98620 16.69726 8010 ft 266 kts 190°
2026-05-04 19:38 47.96757 16.69281 8827 ft 273 kts 190°
2026-05-04 19:38 47.94875 16.68832 9825 ft 276 kts 190°
2026-05-04 19:39 47.92942 16.68372 10517 ft 290 kts 190°
2026-05-04 19:39 47.90873 16.67875 10886 ft 313 kts 190°
2026-05-04 19:39 47.88693 16.67350 11357 ft 329 kts 190°
2026-05-04 19:39 47.86393 16.66799 12230 ft 332 kts 190°
2026-05-04 19:40 47.84102 16.66250 13102 ft 336 kts 190°
2026-05-04 19:40 47.81782 16.65695 13907 ft 340 kts 190°
2026-05-04 19:40 47.79485 16.65145 14639 ft 344 kts 190°
2026-05-04 19:40 47.77137 16.64583 15371 ft 348 kts 190°
2026-05-04 19:41 47.74712 16.64226 16104 ft 353 kts 180°
2026-05-04 19:41 47.72315 16.64660 16784 ft 360 kts 167°
2026-05-04 19:41 47.69947 16.65965 17514 ft 366 kts 156°
2026-05-04 19:41 47.67642 16.67619 18188 ft 371 kts 156°
2026-05-04 19:42 47.65301 16.69293 18790 ft 375 kts 156°
2026-05-04 19:42 47.62964 16.71074 19392 ft 381 kts 148°
2026-05-04 19:42 47.60915 16.73522 19944 ft 388 kts 139°
2026-05-04 19:42 47.58965 16.76319 20524 ft 393 kts 137°
2026-05-04 19:43 47.57012 16.79187 21104 ft 398 kts 137°
2026-05-04 19:43 47.55011 16.82057 21671 ft 402 kts 137°
2026-05-04 19:43 47.52964 16.84917 22241 ft 407 kts 138°
2026-05-04 19:43 47.50958 16.87667 22737 ft 408 kts 138°
2026-05-04 19:44 47.48868 16.90498 23024 ft 412 kts 139°
2026-05-04 19:44 47.46745 16.93367 23546 ft 417 kts 138°
2026-05-04 19:44 47.44598 16.96270 24040 ft 420 kts 138°
2026-05-04 19:44 47.42433 16.99192 24543 ft 423 kts 138°
2026-05-04 19:45 47.40250 17.02136 25028 ft 426 kts 138°
2026-05-04 19:45 47.38050 17.05097 25485 ft 429 kts 138°
2026-05-04 19:45 47.35836 17.08074 25944 ft 432 kts 138°
2026-05-04 19:45 47.33605 17.11071 26400 ft 435 kts 138°
2026-05-04 19:46 47.31360 17.14082 26850 ft 438 kts 138°
2026-05-04 19:46 47.29126 17.17075 27256 ft 441 kts 138°
2026-05-04 19:46 47.26845 17.20128 27689 ft 443 kts 138°
2026-05-04 19:46 47.24554 17.23190 28102 ft 446 kts 138°
2026-05-04 19:47 47.22245 17.26273 28492 ft 449 kts 138°
2026-05-04 19:47 47.20681 17.28360 28755 ft 451 kts 138°
2026-05-04 19:47 47.18375 17.31433 29123 ft 453 kts 138°
2026-05-04 19:47 47.16024 17.34561 29479 ft 456 kts 138°
2026-05-04 19:48 47.13666 17.37696 29834 ft 459 kts 138°
2026-05-04 19:48 47.11289 17.40852 30173 ft 462 kts 138°
2026-05-04 19:48 47.08900 17.44020 30489 ft 464 kts 138°
2026-05-04 19:48 47.06499 17.47199 30798 ft 467 kts 138°
2026-05-04 19:49 47.04084 17.50394 31114 ft 469 kts 138°
2026-05-04 19:49 47.01658 17.53598 31490 ft 469 kts 138°
2026-05-04 19:49 46.99233 17.56797 31885 ft 469 kts 138°
2026-05-04 19:49 46.96805 17.59996 32298 ft 469 kts 138°
2026-05-04 19:50 46.94384 17.63181 32696 ft 468 kts 138°
2026-05-04 19:50 46.91960 17.66367 33098 ft 468 kts 138°
2026-05-04 19:50 46.89539 17.69545 33458 ft 467 kts 138°
2026-05-04 19:50 46.87116 17.72721 33845 ft 467 kts 138°
2026-05-04 19:51 46.84698 17.75887 34175 ft 467 kts 138°
2026-05-04 19:51 46.82311 17.79009 34490 ft 466 kts 138°
2026-05-04 19:51 46.79899 17.82159 34805 ft 465 kts 138°
2026-05-04 19:51 46.77489 17.85302 34959 ft 464 kts 138°
2026-05-04 19:52 46.75084 17.88434 35009 ft 463 kts 138°
2026-05-04 19:52 46.70277 17.94685 35012 ft 463 kts 138°
2026-05-04 19:53 46.65471 18.00918 35017 ft 462 kts 138°
2026-05-04 19:53 46.60722 18.07063 35016 ft 463 kts 138°
2026-05-04 19:54 46.55900 18.13287 35274 ft 464 kts 138°
2026-05-04 19:54 46.53491 18.16390 35588 ft 463 kts 138°
2026-05-04 19:54 46.51087 18.19484 35903 ft 462 kts 138°
2026-05-04 19:54 46.48673 18.22586 36165 ft 462 kts 138°
2026-05-04 19:55 46.46279 18.25658 36442 ft 461 kts 139°
2026-05-04 19:55 46.43881 18.28733 36704 ft 460 kts 139°
2026-05-04 19:55 46.41484 18.31802 36955 ft 460 kts 139°
2026-05-04 19:55 46.39079 18.34877 37196 ft 459 kts 139°
2026-05-04 19:56 46.36682 18.37939 37445 ft 459 kts 139°
2026-05-04 19:56 46.34322 18.40950 37677 ft 458 kts 139°
2026-05-04 19:56 46.31931 18.43997 37896 ft 458 kts 139°
2026-05-04 19:56 46.29536 18.47044 38113 ft 458 kts 139°
2026-05-04 19:57 46.27142 18.50088 38312 ft 457 kts 139°
2026-05-04 19:57 46.24754 18.53120 38505 ft 457 kts 139°
2026-05-04 19:57 46.22363 18.56152 38700 ft 457 kts 139°
2026-05-04 19:57 46.19971 18.59181 38864 ft 457 kts 139°
2026-05-04 19:58 46.17582 18.62203 38988 ft 457 kts 139°
2026-05-04 19:58 46.12796 18.68247 39031 ft 457 kts 139°
2026-05-04 19:59 46.08010 18.74275 39036 ft 457 kts 139°
2026-05-04 19:59 46.03214 18.80301 39040 ft 457 kts 139°
2026-05-04 20:00 45.98415 18.86319 39038 ft 457 kts 139°
2026-05-04 20:00 45.93695 18.92180 39037 ft 457 kts 141°
2026-05-04 20:01 45.88556 18.97542 39034 ft 456 kts 145°
2026-05-04 20:01 45.83347 19.02774 39032 ft 456 kts 145°
2026-05-04 20:02 45.78152 19.08000 39033 ft 456 kts 145°
2026-05-04 20:02 45.72952 19.13216 39035 ft 456 kts 145°
2026-05-04 20:03 45.67748 19.18421 39036 ft 457 kts 145°
2026-05-04 20:03 45.62566 19.23592 39036 ft 457 kts 145°
2026-05-04 20:04 45.57344 19.28792 39037 ft 457 kts 145°
2026-05-04 20:04 45.52123 19.33978 39043 ft 458 kts 145°
2026-05-04 20:05 45.46888 19.39166 39047 ft 458 kts 145°
2026-05-04 20:05 45.41643 19.44352 39051 ft 459 kts 145°
2026-05-04 20:06 45.36393 19.49531 39058 ft 459 kts 145°
2026-05-04 20:06 45.31168 19.54674 39059 ft 459 kts 145°
2026-05-04 20:07 45.25890 19.59857 39061 ft 460 kts 145°
2026-05-04 20:07 45.20622 19.65017 39065 ft 460 kts 145°
2026-05-04 20:08 45.15526 19.69998 39070 ft 460 kts 145°
2026-05-04 20:08 45.10246 19.75148 39068 ft 461 kts 145°
2026-05-04 20:09 45.04966 19.80286 39068 ft 460 kts 145°
2026-05-04 20:09 44.99690 19.85409 39068 ft 460 kts 145°
2026-05-04 20:10 44.94437 19.90497 39069 ft 460 kts 146°
2026-05-04 20:10 44.89153 19.95604 39069 ft 460 kts 146°
2026-05-04 20:11 44.83864 20.00703 39065 ft 460 kts 146°
2026-05-04 20:11 44.78584 20.05784 39065 ft 460 kts 146°
2026-05-04 20:12 44.73287 20.10869 39063 ft 460 kts 146°
2026-05-04 20:12 44.67989 20.15943 39059 ft 461 kts 146°
2026-05-04 20:13 44.62722 20.20976 39061 ft 461 kts 146°
2026-05-04 20:13 44.57421 20.26029 39070 ft 456 kts 146°
2026-05-04 20:14 44.52130 20.31059 39071 ft 463 kts 146°
2026-05-04 20:14 44.46796 20.36128 39076 ft 463 kts 146°
2026-05-04 20:15 44.41456 20.41187 39075 ft 464 kts 146°
2026-05-04 20:15 44.36119 20.46230 39076 ft 463 kts 146°
2026-05-04 20:16 44.30782 20.51262 39076 ft 463 kts 146°
2026-05-04 20:16 44.25468 20.56262 39078 ft 463 kts 146°
2026-05-04 20:17 44.20120 20.61280 39077 ft 463 kts 146°
2026-05-04 20:17 44.14694 20.66128 39084 ft 463 kts 147°
2026-05-04 20:18 44.09250 20.70941 39088 ft 464 kts 147°
2026-05-04 20:18 44.03815 20.75766 39092 ft 464 kts 147°
2026-05-04 20:19 43.98361 20.80605 39092 ft 464 kts 147°
2026-05-04 20:19 43.92915 20.85427 39088 ft 465 kts 147°
2026-05-04 20:20 43.87488 20.90222 39087 ft 465 kts 147°
2026-05-04 20:20 43.82023 20.95039 39082 ft 466 kts 147°
2026-05-04 20:21 43.76545 20.99857 39079 ft 467 kts 147°
2026-05-04 20:21 43.68308 21.07081 39076 ft 468 kts 147°
2026-05-04 20:22 43.63096 21.11640 39072 ft 468 kts 147°
2026-05-04 20:22 43.60727 21.13709 39073 ft 469 kts 147°
2026-05-04 20:23 43.58408 21.15733 39089 ft 456 kts 147°
2026-05-04 20:23 43.55755 21.18045 39094 ft 451 kts 147°
2026-05-04 20:23 43.52480 21.20895 39094 ft 443 kts 147°
2026-05-04 20:24 43.47257 21.25436 39094 ft 450 kts 147°
2026-05-04 20:24 43.41899 21.30084 39092 ft 459 kts 147°
2026-05-04 20:25 43.36447 21.34803 39103 ft 467 kts 147°
2026-05-04 20:25 43.30924 21.39573 39103 ft 469 kts 147°
2026-05-04 20:26 43.25404 21.44331 39104 ft 469 kts 147°
2026-05-04 20:26 43.19899 21.49065 39101 ft 464 kts 147°
2026-05-04 20:27 43.14485 21.53710 39106 ft 461 kts 147°
2026-05-04 20:27 43.08996 21.58411 39108 ft 469 kts 147°
2026-05-04 20:28 43.03457 21.63144 39112 ft 469 kts 147°
2026-05-04 20:28 42.97905 21.67877 39111 ft 469 kts 147°
2026-05-04 20:29 42.92361 21.72594 39106 ft 470 kts 147°
2026-05-04 20:29 42.86812 21.77305 39108 ft 470 kts 147°
2026-05-04 20:30 42.81259 21.82009 39117 ft 471 kts 148°
2026-05-04 20:30 42.75688 21.86718 39120 ft 471 kts 148°
2026-05-04 20:31 42.70151 21.91388 39128 ft 472 kts 148°
2026-05-04 20:31 42.64560 21.96095 39136 ft 472 kts 148°
2026-05-04 20:32 42.58978 22.00783 39130 ft 471 kts 148°
2026-05-04 20:32 42.53403 22.05456 39132 ft 471 kts 148°
2026-05-04 20:33 42.47816 22.10129 39137 ft 471 kts 148°
2026-05-04 20:33 42.42231 22.14789 39137 ft 471 kts 148°
2026-05-04 20:34 42.36677 22.19414 39134 ft 471 kts 148°
2026-05-04 20:34 42.31801 22.22840 39139 ft 472 kts 157°
2026-05-04 20:35 42.25552 22.25528 39141 ft 471 kts 169°
2026-05-04 20:35 42.19137 22.27045 39131 ft 471 kts 171°
2026-05-04 20:36 42.12666 22.28558 39133 ft 472 kts 171°
2026-05-04 20:36 42.06177 22.30084 39132 ft 473 kts 171°
2026-05-04 20:37 41.99693 22.31606 39124 ft 472 kts 171°
2026-05-04 20:37 41.93212 22.33123 39122 ft 472 kts 171°
2026-05-04 20:38 41.86847 22.34610 39117 ft 473 kts 171°